Time,TemperatureF,DewpointF,PressureIn,WindDirection,WindDirectionDegrees,WindSpeedMPH,WindSpeedGustMPH,Humidity,HourlyPrecipIn,Conditions,Clouds,dailyrainin,SolarRadiationWatts/m^2,SoftwareType,DateUTC
2013-02-14 00:21:00,24.0,22.0,-100.00,ESE,118,3.0,6.0,92,0.00,,,0.01,0.000000,,2013-02-14 09:21:00,
2013-02-14 00:31:00,24.0,22.0,-100.00,ESE,118,3.0,6.0,92,0.00,,,0.01,0.000000,,2013-02-14 09:31:00,
2013-02-14 00:41:00,24.0,22.0,-100.00,ESE,118,3.0,6.0,92,0.00,,,0.01,0.000000,,2013-02-14 09:41:00,
2013-02-14 00:51:00,24.0,22.0,-100.00,ESE,118,3.0,6.0,92,0.00,,,0.01,0.000000,,2013-02-14 09:51:00,
2013-02-14 01:11:00,23.0,21.0,-100.00,East,89,2.0,5.0,92,-99.99,,,-99.99,,,2013-02-14 10:11:00,
2013-02-14 01:21:00,23.0,21.0,-100.00,East,89,2.0,6.0,92,0.00,,,0.01,0.000000,,2013-02-14 10:21:00,
2013-02-14 01:31:00,23.0,21.0,-100.00,East,89,2.0,6.0,92,0.00,,,0.01,0.000000,,2013-02-14 10:31:00,
2013-02-14 01:41:00,23.0,21.0,-100.00,East,89,2.0,6.0,92,0.00,,,0.01,0.000000,,2013-02-14 10:41:00,
2013-02-14 01:52:00,23.0,21.0,-100.00,East,89,2.0,6.0,92,0.00,,,0.01,0.000000,,2013-02-14 10:52:00,
2013-02-14 02:11:00,23.0,21.0,-100.00,ENE,71,3.0,7.0,92,-99.99,,,-99.99,,,2013-02-14 11:11:00,
2013-02-14 02:21:00,23.0,21.0,-100.00,ENE,71,4.0,8.0,92,0.00,,,0.01,0.000000,,2013-02-14 11:21:00,
2013-02-14 02:31:00,23.0,21.0,-100.00,ENE,71,4.0,8.0,92,0.00,,,0.01,0.000000,,2013-02-14 11:31:00,
2013-02-14 02:42:00,23.0,21.0,-100.00,ENE,71,4.0,8.0,92,0.00,,,0.01,0.000000,,2013-02-14 11:42:00,
2013-02-14 02:52:00,23.0,21.0,-100.00,ENE,71,4.0,8.0,92,0.00,,,0.01,0.000000,,2013-02-14 11:52:00,
2013-02-14 03:22:00,23.0,21.0,-100.00,NW,305,2.0,16.0,91,0.00,,,0.01,0.000000,,2013-02-14 12:22:00,
2013-02-14 03:32:00,23.0,21.0,-100.00,NW,305,2.0,16.0,91,0.00,,,0.01,0.000000,,2013-02-14 12:32:00,
2013-02-14 03:42:00,23.0,21.0,-100.00,NW,305,2.0,16.0,91,0.00,,,0.01,0.000000,,2013-02-14 12:42:00,
2013-02-14 03:53:00,23.0,21.0,-100.00,NW,305,2.0,16.0,91,0.00,,,0.01,0.000000,,2013-02-14 12:53:00,
2013-02-14 04:21:00,25.0,21.0,-100.00,North,350,3.0,14.0,86,0.00,,,0.01,0.000000,,2013-02-14 13:21:00,
2013-02-14 04:31:00,25.0,21.0,-100.00,North,350,3.0,14.0,86,0.00,,,0.01,0.000000,,2013-02-14 13:31:00,
2013-02-14 04:41:00,25.0,21.0,-100.00,North,350,3.0,14.0,86,0.00,,,0.01,0.000000,,2013-02-14 13:41:00,
2013-02-14 04:51:00,25.0,21.0,-100.00,North,350,3.0,14.0,86,0.00,,,0.01,0.000000,,2013-02-14 13:51:00,
2013-02-14 05:11:00,26.0,22.0,-100.00,West,262,5.0,12.0,84,-99.99,,,-99.99,,,2013-02-14 14:11:00,
2013-02-14 05:21:00,26.0,22.0,-100.00,West,262,6.0,14.0,84,0.00,,,0.01,0.000000,,2013-02-14 14:21:00,
2013-02-14 05:31:00,26.0,22.0,-100.00,West,262,6.0,14.0,84,0.00,,,0.01,0.000000,,2013-02-14 14:31:00,
2013-02-14 05:41:00,26.0,22.0,-100.00,West,262,6.0,14.0,84,0.00,,,0.01,0.000000,,2013-02-14 14:41:00,
2013-02-14 05:52:00,26.0,22.0,-100.00,West,262,6.0,14.0,84,0.00,,,0.01,0.000000,,2013-02-14 14:52:00,
2013-02-14 06:11:00,25.0,22.0,-100.00,NE,46,2.0,8.0,87,-99.99,,,-99.99,,,2013-02-14 15:11:00,
2013-02-14 06:21:00,25.0,22.0,-100.00,NE,46,2.0,9.0,87,0.00,,,0.01,0.000000,,2013-02-14 15:21:00,
2013-02-14 06:31:00,25.0,22.0,-100.00,NE,46,2.0,9.0,87,0.00,,,0.01,0.000000,,2013-02-14 15:31:00,
2013-02-14 06:41:00,25.0,22.0,-100.00,NE,46,2.0,9.0,87,0.00,,,0.01,0.000000,,2013-02-14 15:41:00,
2013-02-14 06:51:00,25.0,22.0,-100.00,NE,46,2.0,9.0,87,0.00,,,0.01,0.000000,,2013-02-14 15:51:00,
2013-02-14 07:21:00,24.0,22.0,-100.00,ENE,78,2.0,6.0,91,0.00,,,0.01,0.000000,,2013-02-14 16:21:00,
2013-02-14 07:31:00,24.0,22.0,-100.00,ENE,78,2.0,6.0,91,0.00,,,0.01,0.000000,,2013-02-14 16:31:00,
2013-02-14 07:41:00,24.0,22.0,-100.00,ENE,78,2.0,6.0,91,0.00,,,0.01,0.000000,,2013-02-14 16:41:00,
2013-02-14 07:51:00,24.0,22.0,-100.00,ENE,78,2.0,6.0,91,0.00,,,0.01,0.000000,,2013-02-14 16:51:00,
2013-02-14 08:21:00,25.0,22.0,-100.00,ESE,108,3.0,7.0,90,0.00,,,0.01,0.000000,,2013-02-14 17:21:00,
2013-02-14 08:31:00,25.0,22.0,-100.00,ESE,108,3.0,7.0,90,0.00,,,0.01,0.000000,,2013-02-14 17:31:00,
2013-02-14 08:41:00,25.0,22.0,-100.00,ESE,108,3.0,7.0,90,0.00,,,0.01,0.000000,,2013-02-14 17:41:00,
2013-02-14 08:52:00,25.0,22.0,-100.00,ESE,108,3.0,7.0,90,0.00,,,0.01,0.000000,,2013-02-14 17:52:00,
2013-02-14 09:22:00,25.0,22.0,-100.00,NNW,335,1.0,6.0,89,0.00,,,0.01,0.000000,,2013-02-14 18:22:00,
2013-02-14 09:31:00,25.0,22.0,-100.00,NNW,335,1.0,6.0,89,0.00,,,0.01,0.000000,,2013-02-14 18:31:00,
2013-02-14 09:41:00,25.0,22.0,-100.00,NNW,335,1.0,6.0,89,0.00,,,0.01,0.000000,,2013-02-14 18:41:00,
2013-02-14 09:51:00,25.0,22.0,-100.00,NNW,335,1.0,6.0,89,0.00,,,0.01,0.000000,,2013-02-14 18:51:00,
2013-02-14 10:11:00,24.0,22.0,-100.00,NNE,14,0.0,3.0,91,-99.99,,,-99.99,,,2013-02-14 19:11:00,
2013-02-14 10:21:00,24.0,22.0,-100.00,NNE,14,0.0,4.0,91,0.00,,,0.01,0.000000,,2013-02-14 19:21:00,
2013-02-14 10:31:00,24.0,22.0,-100.00,NNE,14,0.0,4.0,91,0.00,,,0.01,0.000000,,2013-02-14 19:31:00,
2013-02-14 10:41:00,24.0,22.0,-100.00,NNE,14,0.0,4.0,91,0.00,,,0.01,0.000000,,2013-02-14 19:41:00,
2013-02-14 10:51:00,24.0,22.0,-100.00,NNE,14,0.0,4.0,91,0.00,,,0.01,0.000000,,2013-02-14 19:51:00,
2013-02-14 11:21:00,26.0,24.0,-100.00,NNW,334,1.0,2.0,91,0.00,,,0.01,4.000000,,2013-02-14 20:21:00,
2013-02-14 11:31:00,26.0,24.0,-100.00,NNW,334,1.0,2.0,91,0.00,,,0.01,4.000000,,2013-02-14 20:31:00,
2013-02-14 11:41:00,26.0,24.0,-100.00,NNW,334,1.0,2.0,91,0.00,,,0.01,4.000000,,2013-02-14 20:41:00,
2013-02-14 11:52:00,26.0,24.0,-100.00,NNW,334,1.0,2.0,91,0.00,,,0.01,4.000000,,2013-02-14 20:52:00,
2013-02-14 12:21:00,29.0,25.0,-100.00,NW,320,2.0,4.0,86,0.00,,,0.01,6.000000,,2013-02-14 21:21:00,
2013-02-14 12:31:00,29.0,25.0,-100.00,NW,320,2.0,4.0,86,0.00,,,0.01,6.000000,,2013-02-14 21:31:00,
2013-02-14 12:41:00,29.0,25.0,-100.00,NW,320,2.0,4.0,86,0.00,,,0.01,6.000000,,2013-02-14 21:41:00,
2013-02-14 12:51:00,29.0,25.0,-100.00,NW,320,2.0,4.0,86,0.00,,,0.01,6.000000,,2013-02-14 21:51:00,
2013-02-14 13:21:00,32.0,25.0,-100.00,North,358,2.0,4.0,75,0.00,,,0.01,11.000000,,2013-02-14 22:21:00,
2013-02-14 13:31:00,32.0,25.0,-100.00,North,358,2.0,4.0,75,0.00,,,0.01,11.000000,,2013-02-14 22:31:00,
2013-02-14 13:41:00,32.0,25.0,-100.00,North,358,2.0,4.0,75,0.00,,,0.01,11.000000,,2013-02-14 22:41:00,
2013-02-14 13:51:00,32.0,25.0,-100.00,North,358,2.0,4.0,75,0.00,,,0.01,11.000000,,2013-02-14 22:51:00,
2013-02-14 14:21:00,34.0,24.0,-100.00,NNW,347,3.0,8.0,67,0.00,,,0.01,17.000000,,2013-02-14 23:21:00,
2013-02-14 14:31:00,34.0,24.0,-100.00,NNW,347,3.0,8.0,67,0.00,,,0.01,17.000000,,2013-02-14 23:31:00,
2013-02-14 14:41:00,34.0,24.0,-100.00,NNW,347,3.0,8.0,67,0.00,,,0.01,17.000000,,2013-02-14 23:41:00,
2013-02-14 14:52:00,34.0,24.0,-100.00,NNW,347,3.0,8.0,67,0.00,,,0.01,17.000000,,2013-02-14 23:52:00,
2013-02-14 15:21:00,33.0,24.0,-100.00,NNW,340,2.0,7.0,70,0.01,,,0.01,14.000000,,2013-02-15 00:21:00,
2013-02-14 15:31:00,33.0,24.0,-100.00,NNW,340,2.0,7.0,70,0.01,,,0.01,14.000000,,2013-02-15 00:31:00,
2013-02-14 15:41:00,33.0,24.0,-100.00,NNW,340,2.0,7.0,70,0.01,,,0.01,14.000000,,2013-02-15 00:41:00,
2013-02-14 15:51:00,33.0,24.0,-100.00,NNW,340,2.0,7.0,70,0.01,,,0.01,14.000000,,2013-02-15 00:51:00,
2013-02-14 16:21:00,32.0,26.0,-100.00,NE,37,1.0,5.0,79,0.00,,,0.01,6.000000,,2013-02-15 01:21:00,
2013-02-14 16:31:00,32.0,26.0,-100.00,NE,37,1.0,5.0,79,0.00,,,0.01,6.000000,,2013-02-15 01:31:00,
2013-02-14 16:41:00,32.0,26.0,-100.00,NE,37,1.0,5.0,79,0.00,,,0.01,6.000000,,2013-02-15 01:41:00,
2013-02-14 16:51:00,32.0,26.0,-100.00,NE,37,1.0,5.0,79,0.00,,,0.01,6.000000,,2013-02-15 01:51:00,
2013-02-14 17:11:00,32.0,27.0,-100.00,ESE,116,1.0,3.0,81,-99.99,,,-99.99,,,2013-02-15 02:11:00,
2013-02-14 17:21:00,32.0,27.0,-100.00,ESE,116,1.0,3.0,81,0.01,,,0.02,6.000000,,2013-02-15 02:21:00,
2013-02-14 17:31:00,32.0,27.0,-100.00,ESE,116,1.0,3.0,81,0.01,,,0.02,6.000000,,2013-02-15 02:31:00,
2013-02-14 17:41:00,32.0,27.0,-100.00,ESE,116,1.0,3.0,81,0.01,,,0.02,6.000000,,2013-02-15 02:41:00,
2013-02-14 17:52:00,32.0,27.0,-100.00,ESE,116,1.0,3.0,81,0.01,,,0.02,6.000000,,2013-02-15 02:52:00,
2013-02-14 18:21:00,27.0,24.0,-100.00,East,100,0.0,1.0,90,0.00,,,0.02,2.000000,,2013-02-15 03:21:00,
2013-02-14 18:32:00,27.0,24.0,-100.00,East,100,0.0,1.0,90,0.00,,,0.02,2.000000,,2013-02-15 03:32:00,
2013-02-14 18:41:00,27.0,24.0,-100.00,East,100,0.0,1.0,90,0.00,,,0.02,2.000000,,2013-02-15 03:41:00,
2013-02-14 18:51:00,27.0,24.0,-100.00,East,100,0.0,1.0,90,0.00,,,0.02,2.000000,,2013-02-15 03:51:00,
2013-02-14 19:21:00,26.0,24.0,-100.00,ESE,110,1.0,1.0,93,0.00,,,0.02,0.000000,,2013-02-15 04:21:00,
2013-02-14 19:31:00,26.0,24.0,-100.00,ESE,110,1.0,1.0,93,0.00,,,0.02,0.000000,,2013-02-15 04:31:00,
2013-02-14 19:41:00,26.0,24.0,-100.00,ESE,110,1.0,1.0,93,0.00,,,0.02,0.000000,,2013-02-15 04:41:00,
2013-02-14 19:51:00,26.0,24.0,-100.00,ESE,110,1.0,1.0,93,0.00,,,0.02,0.000000,,2013-02-15 04:51:00,
2013-02-14 20:22:00,27.0,25.0,-100.00,South,184,2.0,4.0,92,0.00,,,0.02,0.000000,,2013-02-15 05:22:00,
2013-02-14 20:32:00,27.0,25.0,-100.00,South,184,2.0,4.0,92,0.00,,,0.02,0.000000,,2013-02-15 05:32:00,
2013-02-14 20:41:00,27.0,25.0,-100.00,South,184,2.0,4.0,92,0.00,,,0.02,0.000000,,2013-02-15 05:41:00,
2013-02-14 20:52:00,27.0,25.0,-100.00,South,184,2.0,4.0,92,0.00,,,0.02,0.000000,,2013-02-15 05:52:00,
2013-02-14 21:11:00,29.0,27.0,-100.00,South,171,3.0,9.0,92,-99.99,,,-99.99,,,2013-02-15 06:11:00,
2013-02-14 21:21:00,29.0,27.0,-100.00,South,171,4.0,10.0,92,0.00,,,0.02,0.000000,,2013-02-15 06:21:00,
2013-02-14 21:31:00,29.0,27.0,-100.00,South,171,4.0,10.0,92,0.00,,,0.02,0.000000,,2013-02-15 06:31:00,
2013-02-14 21:42:00,29.0,27.0,-100.00,South,171,4.0,10.0,92,0.00,,,0.02,0.000000,,2013-02-15 06:42:00,
2013-02-14 21:51:00,29.0,27.0,-100.00,South,171,4.0,10.0,92,0.00,,,0.02,0.000000,,2013-02-15 06:51:00,
2013-02-14 22:21:00,29.0,28.0,-100.00,South,170,4.0,9.0,95,0.00,,,0.02,0.000000,,2013-02-15 07:21:00,
2013-02-14 22:31:00,29.0,28.0,-100.00,South,170,4.0,9.0,95,0.00,,,0.02,0.000000,,2013-02-15 07:31:00,
2013-02-14 22:41:00,29.0,28.0,-100.00,South,170,4.0,9.0,95,0.00,,,0.02,0.000000,,2013-02-15 07:41:00,
2013-02-14 22:52:00,29.0,28.0,-100.00,South,170,4.0,9.0,95,0.00,,,0.02,0.000000,,2013-02-15 07:52:00,
2013-02-14 23:21:00,30.0,29.0,-100.00,SE,141,3.0,9.0,96,0.00,,,-99.99,0.000000,,2013-02-15 08:21:00,
2013-02-14 23:31:00,30.0,29.0,-100.00,SE,141,3.0,9.0,96,0.00,,,-99.99,0.000000,,2013-02-15 08:31:00,
2013-02-14 23:41:00,30.0,29.0,-100.00,SE,141,3.0,9.0,96,0.00,,,-99.99,0.000000,,2013-02-15 08:41:00,
2013-02-14 23:52:00,30.0,29.0,-100.00,SE,141,3.0,9.0,96,0.00,,,-99.99,0.000000,,2013-02-15 08:52:00,